Vitoria, Spain

5:11 AM CET on February 20, 2017 (GMT +0100)
Foronda

Weather History for LEVT - November, 2012

Change the Weather History Date:

Thursday, November 29, 2012

  Actual Average Record
Temperature  
Mean Temperature 40 °F -  
Max Temperature 44 °F 47 °F 62 °F (2001)
Min Temperature 35 °F 33 °F 21 °F (2010)
Degree Days  
Heating Degree Days 26    
Moisture  
Dew Point 36 °F    
Average Humidity 90    
Maximum Humidity 100    
Minimum Humidity 66    
Precipitation  
Precipitation 0.00 in - - ()
Sea Level Pressure  
Sea Level Pressure 29.88 in    
Wind  
Wind Speed 9 mph ()    
Max Wind Speed 18 mph    
Max Gust Speed 33 mph    
Visibility 5.0 miles    
Events Rain , Thunderstorm    
Averages and records for this station are not official NWS values.
T = Trace of Precipitation, MM = Missing Value Source: Averaged Metar Reports

Daily Weather History Graph

Daily Weather History Graph

Search for Another Location

Airport or City:

Trip Planner

Search our weather history database for the weather conditions in past years. The results will help you decide how hot, cold, wet, or windy it might be!

Date:

Astronomy

Nov. 29, 2012 Rise Set
Actual Time 8:20 AM CET 5:38 PM CET
Civil Twilight 7:48 AM CET 6:09 PM CET
Nautical Twilight 7:13 AM CET 6:45 PM CET
Astronomical Twilight 6:39 AM CET 7:19 PM CET
Moon 6:29 PM CET (11/29) 8:55 AM CET (11/29)
Length of Visible Light 10h 21m
Length of Day
9h 18m
Full, 99% of the Moon is Illuminated
Nov 29
Full
Dec 6
Last Quarter
Dec 13
New
Dec 20
First Quarter
Dec 28
Full

Hourly Weather History & Observations

Time (CET) Temp. Windchill Dew Point Humidity Pressure Visibility Wind Dir Wind Speed Gust Speed Precip Events Conditions
12:00 AM 39.2 °F 33.0 °F 35.6 °F 87% 29.86 in 3.1 mi NW 9.2 mph - N/A Rain , Thunderstorm Thunderstorms and Rain
12:30 AM 39.2 °F 35.0 °F 37.4 °F 93% 29.86 in 5.6 mi NNW 5.8 mph - N/A Rain , Thunderstorm Light Thunderstorms and Rain
1:00 AM 37.4 °F 27.5 °F 35.6 °F 93% 29.86 in 3.1 mi NW 18.4 mph 33.4 mph N/A Rain , Thunderstorm Thunderstorms and Rain
1:30 AM 37.4 °F 28.9 °F 35.6 °F 93% 29.86 in 5.6 mi NW 13.8 mph - N/A Rain Light Rain
2:00 AM 37.4 °F 28.9 °F 35.6 °F 93% 29.86 in 3.7 mi NNW 13.8 mph - N/A Rain Rain Showers
2:30 AM 37.4 °F 28.5 °F 35.6 °F 93% 29.86 in 3.7 mi NNW 15.0 mph - N/A Rain Rain Showers
3:00 AM 37.4 °F 32.1 °F 35.6 °F 93% 29.86 in 4.3 mi NNW 6.9 mph - N/A Rain Light Rain Showers
3:30 AM 37.4 °F 29.3 °F 35.6 °F 93% 29.86 in 3.1 mi WNW 12.7 mph - N/A Rain Rain Showers
4:00 AM 37.4 °F 29.8 °F 35.6 °F 93% 29.86 in 3.7 mi NW 11.5 mph - N/A Rain Rain Showers
4:30 AM 37.4 °F 30.3 °F 35.6 °F 93% 29.86 in 4.3 mi NW 10.4 mph - N/A Rain Light Rain Showers
5:00 AM 39.2 °F 32.0 °F 37.4 °F 93% 29.86 in 5.0 mi North 11.5 mph 24.2 mph N/A Rain Light Rain Showers
5:30 AM 39.2 °F 35.9 °F 35.6 °F 87% 29.89 in 5.0 mi North 4.6 mph - N/A Rain Light Rain Showers
6:00 AM 39.2 °F 31.2 °F 35.6 °F 87% 29.89 in 4.3 mi North 13.8 mph - N/A Rain Light Rain Showers
6:30 AM 39.2 °F 33.6 °F 35.6 °F 87% 29.89 in 5.0 mi NNW 8.1 mph - N/A Rain Light Rain
7:00 AM 39.2 °F 30.8 °F 35.6 °F 87% 29.89 in 3.1 mi North 15.0 mph - N/A Rain Light Rain
7:30 AM 37.4 °F 32.8 °F 35.6 °F 93% 29.89 in 5.6 mi NNW 5.8 mph - N/A   Scattered Clouds
8:00 AM 39.2 °F 32.0 °F 35.6 °F 87% 29.89 in 5.6 mi North 11.5 mph - N/A Rain Light Rain
8:30 AM 39.2 °F 32.0 °F 35.6 °F 87% 29.92 in 6.2 mi North 11.5 mph - N/A   Scattered Clouds
9:00 AM 39.2 °F 33.0 °F 35.6 °F 87% 29.92 in 5.6 mi NNW 9.2 mph - N/A Rain Light Rain
9:30 AM 41.0 °F 33.9 °F 37.4 °F 87% 29.92 in 6.2 mi North 12.7 mph - N/A Rain Light Rain
10:00 AM 39.2 °F 30.8 °F 35.6 °F 87% 29.92 in 4.3 mi North 15.0 mph 27.6 mph N/A Rain Light Rain
10:30 AM 37.4 °F 34.9 °F 35.6 °F 93% 29.95 in 6.2 mi WSW 3.5 mph - N/A   Scattered Clouds
11:00 AM 39.2 °F 32.5 °F 35.6 °F 87% 29.95 in 6.2 mi NW 10.4 mph - N/A Rain Light Rain
11:30 AM 37.4 °F 30.8 °F 37.4 °F 100% 29.95 in 2.5 mi WNW 9.2 mph - N/A Rain Rain
12:00 PM 41.0 °F 33.9 °F 37.4 °F 87% 29.95 in 6.2 mi WSW 12.7 mph - N/A Rain Light Rain
12:30 PM 39.2 °F 31.6 °F 35.6 °F 87% 29.92 in 6.2 mi NW 12.7 mph - N/A Rain Light Rain
1:00 PM 39.2 °F 33.6 °F 37.4 °F 93% 29.92 in 6.2 mi NW 8.1 mph - N/A Rain Light Rain
1:30 PM 42.8 °F 36.2 °F 35.6 °F 76% 29.92 in 6.2 mi NW 12.7 mph - N/A Rain Light Rain
2:00 PM 41.0 °F 39.0 °F 37.4 °F 87% 29.92 in 6.2 mi NNE 3.5 mph - N/A   Scattered Clouds
2:30 PM 42.8 °F 38.0 °F 37.4 °F 81% 29.89 in 6.2 mi NW 8.1 mph - N/A   Scattered Clouds
3:00 PM 41.0 °F 33.5 °F 35.6 °F 81% 29.89 in 6.2 mi NNW 13.8 mph - N/A   Scattered Clouds
3:30 PM 42.8 °F 38.0 °F 33.8 °F 70% 29.89 in 6.2 mi NW 8.1 mph - N/A   Scattered Clouds
4:00 PM 44.6 °F 38.8 °F 33.8 °F 66% 29.89 in 6.2 mi NNW 11.5 mph - N/A   Mostly Cloudy
4:30 PM 41.0 °F 35.2 °F 37.4 °F 87% 29.89 in 4.3 mi NNE 9.2 mph - N/A Rain Light Rain Showers
5:00 PM 39.2 °F 35.0 °F 37.4 °F 93% 29.89 in 2.5 mi NNW 5.8 mph 19.6 mph N/A Rain Rain Showers
5:30 PM 39.2 °F 34.2 °F 37.4 °F 93% 29.89 in 3.7 mi WNW 6.9 mph - N/A Rain Light Rain Showers
6:00 PM 39.2 °F 33.0 °F 37.4 °F 93% 29.89 in 3.7 mi WNW 9.2 mph - N/A Rain Light Rain
6:30 PM 37.4 °F 33.8 °F 35.6 °F 93% 29.89 in 5.0 mi NW 4.6 mph - N/A Rain Light Rain
7:00 PM 37.4 °F 34.9 °F 35.6 °F 93% 29.89 in 5.0 mi NNW 3.5 mph - N/A Rain Light Rain
7:30 PM 37.4 °F 29.8 °F 35.6 °F 93% 29.86 in 5.0 mi NW 11.5 mph - N/A Rain Light Rain
8:00 PM 37.4 °F 32.1 °F 35.6 °F 93% 29.86 in 5.6 mi WNW 6.9 mph - N/A Rain Light Rain
8:30 PM 35.6 °F 31.7 °F 35.6 °F 100% 29.86 in 6.2 mi WNW 4.6 mph - N/A   Mostly Cloudy
9:00 PM 37.4 °F - 35.6 °F 93% 29.86 in 6.2 mi Variable 2.3 mph - N/A   Mostly Cloudy
9:30 PM 37.4 °F 31.4 °F 35.6 °F 93% 29.86 in 5.0 mi WNW 8.1 mph - N/A Rain Light Rain
10:00 PM 37.4 °F 31.4 °F 35.6 °F 93% 29.83 in 5.0 mi WNW 8.1 mph - N/A Rain Light Rain
10:30 PM 37.4 °F 31.4 °F 35.6 °F 93% 29.83 in 6.2 mi WNW 8.1 mph - N/A   Scattered Clouds
11:00 PM 37.4 °F 32.8 °F 35.6 °F 93% 29.80 in 5.6 mi WSW 5.8 mph - N/A Rain Light Rain
11:30 PM 37.4 °F - 35.6 °F 93% 29.80 in 5.6 mi Variable 1.2 mph - N/A Rain Light Rain